,,PA_Meas_PMT16A,,PR_Meas_QMR101_102,,RH_Meas_QMH101,,SR_Meas_QMS101,,TA_Meas_QMH101,,GenWind,,GenWind,
time,status,PA,status,PR,status,RH,status,SR,status,TA,status,DirAvg,status,SpdAvg,
2016-12-13, 14:48:04,VALID,918.084,VALID,0,INVALID,120.61,VALID,236.908,VALID,20.582,VALID,79,VALID,0,
2016-12-13, 14:58:04,VALID,918.344,VALID,0,VALID,91.603,VALID,204.783,VALID,21.3038,VALID,68,VALID,0,
2016-12-13, 15:00:04,VALID,918.373,VALID,0,VALID,88.1877,VALID,177.063,VALID,21.3429,VALID,67,VALID,0,
2016-12-13, 15:01:04,VALID,918.39,VALID,0,VALID,88.0886,VALID,257.859,VALID,21.3803,VALID,68,VALID,0,
2016-12-13, 15:02:04,VALID,918.39,VALID,0,VALID,91.3361,VALID,270.967,VALID,21.499,VALID,350,VALID,0,
2016-12-13, 15:03:04,VALID,918.378,VALID,0,VALID,96.5582,VALID,303.199,VALID,21.5575,VALID,316,VALID,0,
2016-12-13, 15:04:04,VALID,918.377,VALID,0,VALID,91.7326,VALID,318.563,VALID,21.6551,VALID,316,VALID,0,
2016-12-13, 15:05:04,VALID,918.383,VALID,0,VALID,86.1827,VALID,325.224,VALID,21.8485,VALID,316,VALID,0,
2016-12-13, 15:06:04,VALID,918.379,VALID,0,VALID,84.9477,VALID,332.53,VALID,21.9851,VALID,318,VALID,0,
2016-12-13, 15:07:04,VALID,918.403,VALID,0,VALID,84.9858,VALID,338.225,VALID,21.9851,VALID,257,VALID,0,
2016-12-13, 15:08:04,VALID,918.394,VALID,0,VALID,84.4903,VALID,274.19,VALID,21.6924,VALID,254,VALID,0,
2016-12-13, 15:09:04,VALID,918.385,VALID,0,VALID,86.6935,VALID,267.636,VALID,21.5559,VALID,255,VALID,0,
2016-12-13, 15:10:04,VALID,918.41,VALID,0,VALID,87.189,VALID,255.925,VALID,21.712,VALID,255,VALID,0,
2016-12-13, 15:12:04,VALID,918.426,VALID,0,VALID,86.7164,VALID,295.463,VALID,22.0047,VALID,344,VALID,0,
2016-12-13, 15:13:04,VALID,918.415,VALID,0,VALID,82.4777,VALID,298.257,VALID,22.081,VALID,354,VALID,0.394922,
2016-12-13, 15:14:04,VALID,918.4,VALID,0,VALID,80.2136,VALID,294.066,VALID,22.081,VALID,327,VALID,0,
2016-12-13, 15:15:04,VALID,918.407,VALID,0,VALID,81.3876,VALID,299.761,VALID,22.1591,VALID,351,VALID,0,
2016-12-13, 15:16:04,VALID,918.37,VALID,0,VALID,81.0598,VALID,229.602,VALID,22.3347,VALID,31,VALID,0.0886719,
2016-12-13, 15:17:04,VALID,918.404,VALID,0,VALID,82.5616,VALID,343.812,VALID,22.2974,VALID,30,VALID,0.0617188,
2016-12-13, 15:18:04,VALID,918.443,VALID,0,VALID,81.5324,VALID,306.53,VALID,22.3364,VALID,15,VALID,0.0597656,
2016-12-13, 15:19:04,VALID,918.411,VALID,0,VALID,81.7993,VALID,322.001,VALID,22.2974,VALID,16,VALID,0,
2016-12-13, 15:20:04,VALID,918.475,VALID,0,VALID,82.3405,VALID,352.944,VALID,22.2193,VALID,42,VALID,0.523047,
2016-12-13, 15:21:04,VALID,918.442,VALID,0,VALID,84.2997,VALID,333.605,VALID,22.1803,VALID,28,VALID,0,
2016-12-13, 15:22:04,VALID,918.472,VALID,0,VALID,81.38,VALID,358.746,VALID,22.1998,VALID,52,VALID,0.196875,
2016-12-13, 15:23:04,VALID,918.492,VALID,0,VALID,82.9046,VALID,357.886,VALID,22.1201,VALID,39,VALID,0.288672,
2016-12-13, 15:24:04,VALID,918.482,VALID,0,VALID,82.6302,VALID,373.895,VALID,22.1591,VALID,35,VALID,2.13242,
2016-12-13, 15:25:04,VALID,918.488,VALID,0,VALID,81.2199,VALID,382.92,VALID,22.1005,VALID,10,VALID,0,
2016-12-13, 15:26:04,VALID,918.494,VALID,0,VALID,81.8145,VALID,407.309,VALID,22.2176,VALID,356,VALID,0,
2016-12-13, 15:27:04,VALID,918.532,VALID,0,VALID,81.5019,VALID,405.375,VALID,22.4323,VALID,10,VALID,0.00351562,
2016-12-13, 15:28:04,VALID,918.534,VALID,0,VALID,80.549,VALID,401.185,VALID,22.4925,VALID,27,VALID,0.188281,
2016-12-13, 15:29:04,VALID,918.524,VALID,0,VALID,79.5885,VALID,437.5,VALID,22.4696,VALID,11,VALID,0.510156,
2016-12-13, 15:30:04,VALID,918.565,VALID,0,VALID,79.6342,VALID,475.535,VALID,22.5299,VALID,359,VALID,0.482422,
2016-12-13, 15:31:04,VALID,918.548,VALID,0,VALID,79.4894,VALID,490.147,VALID,22.6665,VALID,66,VALID,1.12617,
2016-12-13, 15:32:04,VALID,918.57,VALID,0,VALID,77.797,VALID,433.74,VALID,22.8421,VALID,51,VALID,0,
2016-12-13, 15:33:04,VALID,918.57,VALID,0,VALID,75.0678,VALID,273.867,VALID,23.0178,VALID,351,VALID,0,
2016-12-13, 15:34:04,VALID,918.585,VALID,0,VALID,73.4974,VALID,255.28,VALID,23.0568,VALID,281,VALID,0,
2016-12-13, 15:35:04,VALID,918.563,VALID,0,VALID,74.5951,VALID,241.42,VALID,23.0959,VALID,300,VALID,0,
2016-12-13, 15:36:04,VALID,918.558,VALID,0,VALID,75.3575,VALID,378.623,VALID,23.1349,VALID,329,VALID,0,
2016-12-13, 15:37:04,VALID,918.51,VALID,0,VALID,73.1238,VALID,254.743,VALID,23.213,VALID,38,VALID,0,
2016-12-13, 15:38:04,VALID,918.517,VALID,0,VALID,75.5557,VALID,283.645,VALID,23.2112,VALID,17,VALID,0.213281,
2016-12-13, 15:39:04,VALID,918.485,VALID,0,VALID,73.1162,VALID,298.901,VALID,23.1935,VALID,31,VALID,0.955859,
2016-12-13, 15:40:04,VALID,918.455,VALID,0,VALID,75.3727,VALID,265.165,VALID,23.0941,VALID,25,VALID,0.507813,
2016-12-13, 15:41:04,VALID,918.448,VALID,0,VALID,75.1059,VALID,275.049,VALID,23.016,VALID,34,VALID,1.55391,
2016-12-13, 15:42:04,VALID,918.46,VALID,0,VALID,76.7602,VALID,298.794,VALID,22.9575,VALID,17,VALID,0.505859,
2016-12-13, 15:43:04,VALID,918.476,VALID,0,VALID,75.4794,VALID,281.388,VALID,23.0356,VALID,358,VALID,0,
2016-12-13, 15:44:04,VALID,918.415,VALID,0,VALID,75.5938,VALID,290.951,VALID,23.1331,VALID,10,VALID,0,
2016-12-13, 15:45:04,VALID,918.42,VALID,0,VALID,75.083,VALID,304.273,VALID,23.2698,VALID,64,VALID,0,
2016-12-13, 15:46:04,VALID,918.409,VALID,0,VALID,73.1848,VALID,232.288,VALID,23.2893,VALID,82,VALID,0,
2016-12-13, 15:47:04,VALID,918.453,VALID,0,VALID,73.6727,VALID,290.091,VALID,23.2502,VALID,84,VALID,0,
2016-12-13, 15:48:04,VALID,918.438,VALID,0,VALID,74.3359,VALID,407.417,VALID,23.268,VALID,24,VALID,0,
2016-12-13, 15:49:04,VALID,918.473,VALID,0,VALID,76.4171,VALID,291.273,VALID,23.3478,VALID,332,VALID,0,
2016-12-13, 15:50:04,VALID,918.454,VALID,0,VALID,76.4934,VALID,395.813,VALID,23.3674,VALID,13,VALID,0,
2016-12-13, 15:51:04,VALID,918.477,VALID,0,VALID,75.0373,VALID,305.67,VALID,23.229,VALID,352,VALID,0,
2016-12-13, 15:52:04,VALID,918.439,VALID,0,VALID,74.7476,VALID,418.483,VALID,23.2112,VALID,314,VALID,0,
2016-12-13, 15:53:04,VALID,918.47,VALID,0,VALID,75.3346,VALID,386.573,VALID,23.1119,VALID,314,VALID,0,
2016-12-13, 15:54:04,VALID,918.461,VALID,0,VALID,73.2382,VALID,548.057,VALID,23.1331,VALID,256,VALID,0,
2016-12-13, 15:55:04,VALID,918.438,VALID,0,VALID,73.5888,VALID,475.857,VALID,23.3106,VALID,22,VALID,0,
2016-12-13, 15:56:04,VALID,918.459,VALID,0,VALID,74.9153,VALID,498.097,VALID,23.3887,VALID,10,VALID,1.11211,
2016-12-13, 15:57:04,VALID,918.447,VALID,0,VALID,75.8759,VALID,489.072,VALID,23.2893,VALID,23,VALID,0.789453,
2016-12-13, 15:58:04,VALID,918.438,VALID,0,VALID,72.9027,VALID,288.05,VALID,23.213,VALID,33,VALID,1.71016,
2016-12-13, 15:59:04,VALID,918.464,VALID,0,VALID,76.8059,VALID,445.451,VALID,23.1917,VALID,355,VALID,0.585938,
2016-12-13, 16:00:04,VALID,918.487,VALID,0,VALID,74.8924,VALID,449.641,VALID,23.3869,VALID,54,VALID,0.654688,
2016-12-13, 16:01:04,VALID,918.452,VALID,0,VALID,72.5063,VALID,422.781,VALID,23.4064,VALID,35,VALID,1.49766,
2016-12-13, 16:02:04,VALID,918.439,VALID,0,VALID,76.1579,VALID,364.87,VALID,23.3088,VALID,28,VALID,1.45156,
2016-12-13, 16:03:04,VALID,918.472,VALID,0,VALID,74.7171,VALID,315.232,VALID,23.5626,VALID,27,VALID,0,
2016-12-13, 16:04:04,VALID,918.455,VALID,0,VALID,74.9915,VALID,269.355,VALID,23.8749,VALID,348,VALID,0,
2016-12-13, 16:05:04,VALID,918.459,VALID,0,VALID,77.6292,VALID,234.759,VALID,24.0115,VALID,346,VALID,0.771094,
2016-12-13, 16:06:04,VALID,918.47,VALID,0,VALID,73.3373,VALID,208.114,VALID,24.1092,VALID,332,VALID,0.883203,
2016-12-13, 16:07:04,VALID,918.466,VALID,0,VALID,72.1328,VALID,195.113,VALID,24.1287,VALID,332,VALID,0,
2016-12-13, 16:08:04,VALID,918.453,VALID,0,VALID,70.265,VALID,191.03,VALID,24.2458,VALID,344,VALID,0,
2016-12-13, 16:09:04,VALID,918.433,VALID,0,VALID,70.9206,VALID,195.435,VALID,24.4216,VALID,31,VALID,0,
2016-12-13, 16:10:04,VALID,918.416,VALID,0,VALID,70.8673,VALID,205.535,VALID,24.6949,VALID,65,VALID,0,
2016-12-13, 16:11:04,VALID,918.453,VALID,0,VALID,70.4175,VALID,207.791,VALID,24.8121,VALID,38,VALID,0,
2016-12-13, 16:12:04,VALID,918.452,VALID,0,VALID,68.8623,VALID,185.981,VALID,24.9097,VALID,273,VALID,0,
2016-12-13, 16:13:04,VALID,918.445,VALID,0,VALID,69.1673,VALID,184.262,VALID,24.7926,VALID,303,VALID,0.298828,
2016-12-13, 16:14:04,VALID,918.437,VALID,0,VALID,71.1951,VALID,181.253,VALID,24.5582,VALID,360,VALID,1.0457,
2016-12-13, 16:15:04,VALID,918.447,VALID,0,VALID,71.7668,VALID,185.658,VALID,24.1854,VALID,26,VALID,1.01094,
2016-12-13, 16:16:04,VALID,918.465,VALID,0,VALID,71.7135,VALID,188.559,VALID,24.0097,VALID,350,VALID,0.872266,
2016-12-13, 16:17:04,VALID,918.433,VALID,0,VALID,72.2242,VALID,192.427,VALID,23.8536,VALID,294,VALID,0,
2016-12-13, 16:18:04,VALID,918.423,VALID,0,VALID,73.7642,VALID,196.295,VALID,23.7578,VALID,355,VALID,0.375391,
2016-12-13, 16:19:04,VALID,918.406,VALID,0,VALID,76.7297,VALID,203.279,VALID,23.6193,VALID,7,VALID,0.4375,
2016-12-13, 16:20:04,VALID,918.396,VALID,0,VALID,76.7525,VALID,212.304,VALID,23.6193,VALID,19,VALID,0.795313,
2016-12-13, 16:21:04,VALID,918.382,VALID,0,VALID,74.7171,VALID,216.709,VALID,23.7187,VALID,114,VALID,0,
2016-12-13, 16:22:04,VALID,918.418,VALID,0,VALID,77.6902,VALID,215.42,VALID,23.756,VALID,3,VALID,0.00585938,
2016-12-13, 16:23:04,VALID,918.417,VALID,0,VALID,76.0664,VALID,219.18,VALID,23.756,VALID,335,VALID,0.160938,
2016-12-13, 16:24:04,VALID,918.425,VALID,0,VALID,74.2749,VALID,226.593,VALID,23.7364,VALID,302,VALID,0,
2016-12-13, 16:25:04,VALID,918.405,VALID,0,VALID,75.2812,VALID,232.718,VALID,23.6388,VALID,22,VALID,1.22539,
2016-12-13, 16:26:04,VALID,918.38,VALID,0,VALID,73.9395,VALID,241.743,VALID,23.7169,VALID,262,VALID,0,
2016-12-13, 16:27:04,VALID,918.395,VALID,0,VALID,73.3678,VALID,259.578,VALID,23.795,VALID,325,VALID,0.494141,
2016-12-13, 16:28:04,VALID,918.389,VALID,0,VALID,75.2126,VALID,294.926,VALID,23.834,VALID,12,VALID,0,
2016-12-13, 16:29:04,VALID,918.366,VALID,0,VALID,75.9292,VALID,328.985,VALID,23.9316,VALID,343,VALID,0.240234,
2016-12-13, 16:30:04,VALID,918.381,VALID,0,VALID,74.2368,VALID,385.714,VALID,24.0311,VALID,350,VALID,0,
2016-12-13, 16:31:04,VALID,918.404,VALID,0,VALID,74.9306,VALID,387.755,VALID,24.1659,VALID,358,VALID,0,
2016-12-13, 16:32:04,VALID,918.412,VALID,0,VALID,75.6319,VALID,311.902,VALID,24.3416,VALID,351,VALID,0,
2016-12-13, 16:33:04,VALID,918.448,VALID,0,VALID,71.5381,VALID,343.812,VALID,24.3026,VALID,11,VALID,0,
2016-12-13, 16:34:04,VALID,918.461,VALID,0,VALID,73.5965,VALID,326.191,VALID,24.2245,VALID,10,VALID,0,
2016-12-13, 16:35:04,VALID,918.463,VALID,0,VALID,74.557,VALID,301.372,VALID,24.1464,VALID,320,VALID,0,
2016-12-13, 16:36:04,VALID,918.453,VALID,0,VALID,75.5099,VALID,431.161,VALID,24.1464,VALID,21,VALID,0,
2016-12-13, 16:37:04,VALID,918.405,VALID,0,VALID,72.8112,VALID,384.747,VALID,24.2635,VALID,327,VALID,0.137109,
2016-12-13, 16:38:04,VALID,918.429,VALID,0,VALID,74.3054,VALID,482.303,VALID,24.1873,VALID,281,VALID,0.0195313,
2016-12-13, 16:39:04,VALID,918.409,VALID,0,VALID,73.261,VALID,490.899,VALID,24.1073,VALID,272,VALID,0,
2016-12-13, 16:40:04,VALID,918.393,VALID,0,VALID,72.4148,VALID,503.899,VALID,24.1836,VALID,347,VALID,1.00625,
2016-12-13, 16:41:04,VALID,918.388,VALID,0,VALID,73.6422,VALID,529.47,VALID,24.1269,VALID,15,VALID,0.947656,
2016-12-13, 16:42:04,VALID,918.362,VALID,0,VALID,73.1695,VALID,540.536,VALID,24.1836,VALID,27,VALID,0.06875,
2016-12-13, 16:43:04,VALID,918.35,VALID,0,VALID,75.5328,VALID,499.279,VALID,24.2812,VALID,348,VALID,0,
2016-12-13, 16:44:04,VALID,918.361,VALID,0,VALID,74.2292,VALID,638.953,VALID,24.3416,VALID,310,VALID,0,
2016-12-13, 16:45:04,VALID,918.381,VALID,0,VALID,71.9193,VALID,607.472,VALID,24.5368,VALID,349,VALID,0.344141,
2016-12-13, 16:46:04,VALID,918.371,VALID,0,VALID,69.739,VALID,662.59,VALID,24.693,VALID,326,VALID,0,
2016-12-13, 16:47:04,VALID,918.397,VALID,0,VALID,71.5458,VALID,668.177,VALID,24.8297,VALID,326,VALID,0,
2016-12-13, 16:48:04,VALID,918.352,VALID,0,VALID,68.1915,VALID,670.003,VALID,24.8297,VALID,25,VALID,1.38359,
2016-12-13, 16:49:04,VALID,918.379,VALID,0,VALID,67.1775,VALID,703.74,VALID,24.7907,VALID,327,VALID,0,
2016-12-13, 16:50:04,VALID,918.366,VALID,0,VALID,69.1444,VALID,679.243,VALID,24.8688,VALID,352,VALID,1.0543,
2016-12-13, 16:51:04,VALID,918.392,VALID,0,VALID,68.7861,VALID,687.516,VALID,24.9078,VALID,14,VALID,1.02695,
2016-12-13, 16:52:04,VALID,918.398,VALID,0,VALID,66.7811,VALID,694.607,VALID,25.0055,VALID,353,VALID,1.27617,
2016-12-13, 16:53:04,VALID,918.397,VALID,0,VALID,70.6614,VALID,664.953,VALID,24.9255,VALID,2,VALID,1.09687,
2016-12-13, 16:54:04,VALID,918.428,VALID,0,VALID,69.4874,VALID,688.053,VALID,24.8864,VALID,8,VALID,2.45703,
2016-12-13, 16:55:04,VALID,918.459,VALID,0,VALID,68.7251,VALID,699.12,VALID,24.9255,VALID,341,VALID,1.05234,
2016-12-13, 16:56:04,VALID,918.449,VALID,0,VALID,69.0377,VALID,685.367,VALID,24.8883,VALID,28,VALID,0.391406,
2016-12-13, 16:57:04,VALID,918.45,VALID,0,VALID,74.1682,VALID,671.185,VALID,25.0231,VALID,1,VALID,0.558984,
2016-12-13, 16:58:04,VALID,918.482,VALID,0,VALID,69.5408,VALID,739.84,VALID,25.2769,VALID,360,VALID,0.272656,
2016-12-13, 16:59:04,VALID,918.487,VALID,0,VALID,64.5246,VALID,703.74,VALID,25.355,VALID,259,VALID,0,
2016-12-13, 17:00:04,VALID,918.442,VALID,0,VALID,68.4811,VALID,687.194,VALID,25.3746,VALID,28,VALID,1.24023,
2016-12-13, 17:01:04,VALID,918.418,VALID,0,VALID,66.3237,VALID,738.443,VALID,25.5523,VALID,18,VALID,1.37148,
2016-12-13, 17:02:04,VALID,918.391,VALID,0,VALID,65.8206,VALID,722.219,VALID,25.4741,VALID,3,VALID,2.2957,
2016-12-13, 17:03:04,VALID,918.389,VALID,0,VALID,65.4242,VALID,708.037,VALID,25.3374,VALID,352,VALID,0.888672,
2016-12-13, 17:04:04,VALID,918.428,VALID,0,VALID,68.2601,VALID,720.93,VALID,25.2203,VALID,33,VALID,0.870313,
2016-12-13, 17:05:04,VALID,918.416,VALID,0,VALID,67.1166,VALID,713.839,VALID,25.4156,VALID,341,VALID,0.0839844,
2016-12-13, 17:06:04,VALID,918.44,VALID,0,VALID,64.6389,VALID,685.797,VALID,25.5698,VALID,260,VALID,0.000390625,
2016-12-13, 17:07:04,VALID,918.416,VALID,0,VALID,64.0367,VALID,720.071,VALID,25.3374,VALID,256,VALID,0.869922,
2016-12-13, 17:08:04,VALID,918.399,VALID,0,VALID,66.3847,VALID,732.964,VALID,25.1402,VALID,20,VALID,1.7375,
2016-12-13, 17:09:04,VALID,918.372,VALID,0,VALID,65.8968,VALID,716.525,VALID,25.2965,VALID,301,VALID,0,
2016-12-13, 17:10:04,VALID,918.41,VALID,0,VALID,65.1802,VALID,712.657,VALID,25.4527,VALID,8,VALID,0.408594,
2016-12-13, 17:11:04,VALID,918.404,VALID,0,VALID,65.6224,VALID,678.921,VALID,25.4741,VALID,301,VALID,0.467187,
2016-12-13, 17:12:04,VALID,918.428,VALID,0,VALID,65.1268,VALID,720.93,VALID,25.355,VALID,308,VALID,1.26055,
2016-12-13, 17:13:04,VALID,918.437,VALID,0,VALID,63.8309,VALID,198.229,VALID,25.1793,VALID,257,VALID,1.33906,
2016-12-13, 17:14:04,VALID,918.38,VALID,0,VALID,66.8497,VALID,704.062,VALID,24.8669,VALID,240,VALID,0.926172,
2016-12-13, 17:15:04,VALID,918.381,VALID,0,VALID,67.7417,VALID,701.161,VALID,24.6716,VALID,256,VALID,1.52813,
2016-12-13, 17:16:04,VALID,918.379,VALID,0,VALID,66.4305,VALID,637.126,VALID,24.5722,VALID,269,VALID,2.14023,
2016-12-13, 17:17:04,VALID,918.373,VALID,0,VALID,67.208,VALID,726.195,VALID,24.574,VALID,276,VALID,0.726563,
2016-12-13, 17:18:04,VALID,918.381,VALID,0,VALID,67.5816,VALID,735.864,VALID,24.6912,VALID,246,VALID,0.0449219,
2016-12-13, 17:19:04,VALID,918.35,VALID,0,VALID,67.1928,VALID,724.905,VALID,24.7888,VALID,274,VALID,0.258984,
2016-12-13, 17:20:04,VALID,918.371,VALID,0,VALID,64.7914,VALID,786.039,VALID,24.8083,VALID,297,VALID,0.189453,
2016-12-13, 17:21:04,VALID,918.405,VALID,0,VALID,65.9502,VALID,490.147,VALID,24.7693,VALID,253,VALID,0.0121094,
2016-12-13, 17:23:04,VALID,918.378,VALID,0,VALID,68.6717,VALID,179.427,VALID,25.0036,VALID,4,VALID,0.642969,
2016-12-13, 17:24:04,VALID,918.35,VALID,0,VALID,67.3529,VALID,186.733,VALID,24.984,VALID,33,VALID,2.24375,
2016-12-13, 17:25:04,VALID,918.35,VALID,0,VALID,70.1583,VALID,178.352,VALID,24.865,VALID,12,VALID,0.216406,
2016-12-13, 17:26:04,VALID,918.351,VALID,0,VALID,66.4838,VALID,184.047,VALID,24.7888,VALID,273,VALID,0,
2016-12-13, 17:27:04,VALID,918.339,VALID,0,VALID,66.9336,VALID,215.205,VALID,24.7302,VALID,276,VALID,0,
2016-12-13, 17:28:04,VALID,918.366,VALID,0,VALID,67.5282,VALID,348.754,VALID,24.8278,VALID,276,VALID,0,
2016-12-13, 17:29:04,VALID,918.317,VALID,0,VALID,70.8444,VALID,236.693,VALID,24.9255,VALID,349,VALID,0,
2016-12-13, 17:30:04,VALID,918.328,VALID,0,VALID,66.1789,VALID,355.093,VALID,24.8864,VALID,324,VALID,0,
2016-12-13, 17:31:04,VALID,918.336,VALID,0,VALID,65.3174,VALID,324.687,VALID,24.8864,VALID,40,VALID,0.395703,
2016-12-13, 17:32:04,VALID,918.323,VALID,0,VALID,64.4179,VALID,315.77,VALID,24.8864,VALID,319,VALID,0,
2016-12-13, 17:33:04,VALID,918.321,VALID,0,VALID,66.4305,VALID,293.852,VALID,24.9059,VALID,28,VALID,0,
2016-12-13, 17:34:04,VALID,918.301,VALID,0,VALID,68.6565,VALID,303.736,VALID,24.9645,VALID,41,VALID,0.0375,
2016-12-13, 17:35:04,VALID,918.323,VALID,0,VALID,70.7072,VALID,282.678,VALID,25.0836,VALID,8,VALID,0.781641,
2016-12-13, 17:36:04,VALID,918.306,VALID,0,VALID,68.4964,VALID,241.42,VALID,25.0817,VALID,22,VALID,0.208984,
2016-12-13, 17:37:04,VALID,918.282,VALID,0,VALID,67.5816,VALID,249.263,VALID,25.1207,VALID,18,VALID,0,
2016-12-13, 17:38:04,VALID,918.31,VALID,0,VALID,67.574,VALID,250.23,VALID,25.2574,VALID,4,VALID,0,
2016-12-13, 17:39:04,VALID,918.262,VALID,0,VALID,64.4026,VALID,696.219,VALID,25.4527,VALID,160,VALID,0.0015625,
2016-12-13, 17:40:04,VALID,918.253,VALID,0,VALID,66.6973,VALID,701.161,VALID,25.6089,VALID,79,VALID,0,
2016-12-13, 17:41:04,VALID,918.236,VALID,0,VALID,67.1775,VALID,727.054,VALID,25.8433,VALID,355,VALID,0.478516,
2016-12-13, 17:42:04,VALID,918.228,VALID,0,VALID,62.9999,VALID,732.104,VALID,25.8628,VALID,328,VALID,0.506641,
2016-12-13, 17:43:04,VALID,918.216,VALID,0,VALID,65.1497,VALID,733.286,VALID,25.8042,VALID,11,VALID,0,
2016-12-13, 17:44:04,VALID,918.204,VALID,0,VALID,64.9286,VALID,733.178,VALID,25.7671,VALID,249,VALID,0,
2016-12-13, 17:45:04,VALID,918.176,VALID,0,VALID,62.8246,VALID,663.771,VALID,25.5894,VALID,256,VALID,0,
2016-12-13, 17:46:04,VALID,918.159,VALID,0,VALID,62.695,VALID,681.177,VALID,25.4507,VALID,302,VALID,1.32187,
2016-12-13, 17:47:04,VALID,918.168,VALID,0,VALID,64.4102,VALID,711.798,VALID,25.1598,VALID,266,VALID,0.0167969,
2016-12-13, 17:48:04,VALID,918.191,VALID,0,VALID,64.1892,VALID,738.658,VALID,25.1598,VALID,294,VALID,0.0195313,
2016-12-13, 17:49:04,VALID,918.13,VALID,0,VALID,66.2551,VALID,664.738,VALID,25.2379,VALID,292,VALID,0,
2016-12-13, 17:50:04,VALID,918.159,VALID,0,VALID,66.6058,VALID,608.976,VALID,25.4546,VALID,294,VALID,0.0917969,
2016-12-13, 17:51:04,VALID,918.131,VALID,0,VALID,65.2107,VALID,267.958,VALID,25.6284,VALID,14,VALID,0,
2016-12-13, 17:52:04,VALID,918.127,VALID,0,VALID,64.6085,VALID,518.941,VALID,25.5308,VALID,188,VALID,0.0632813,
2016-12-13, 17:53:04,VALID,918.152,VALID,0,VALID,70.326,VALID,270.429,VALID,25.5698,VALID,34,VALID,0.884766,
2016-12-13, 17:54:04,VALID,918.11,VALID,0,VALID,61.2465,VALID,845.669,VALID,25.4722,VALID,234,VALID,0.321875,
2016-12-13, 17:55:04,VALID,918.048,VALID,0,VALID,66.2475,VALID,845.884,VALID,25.4917,VALID,280,VALID,0.129297,
2016-12-13, 17:56:04,VALID,918.091,VALID,0,VALID,66.9565,VALID,249.586,VALID,25.5308,VALID,13,VALID,2.45625,
2016-12-13, 17:57:04,VALID,918.089,VALID,0,VALID,66.2627,VALID,694.5,VALID,25.5894,VALID,28,VALID,1.77695,
2016-12-13, 17:58:04,VALID,918.096,VALID,0,VALID,66.1255,VALID,807.42,VALID,25.7632,VALID,6,VALID,1.11055,
2016-12-13, 17:59:04,VALID,918.086,VALID,0,VALID,62.2147,VALID,639.06,VALID,25.9995,VALID,8,VALID,2.28789,
2016-12-13, 18:00:04,VALID,918.07,VALID,0,VALID,59.7295,VALID,760.898,VALID,26.0757,VALID,311,VALID,0.0121094,
2016-12-13, 18:01:04,VALID,918.089,VALID,0,VALID,60.2555,VALID,770.675,VALID,26.2534,VALID,350,VALID,0,
2016-12-13, 18:02:04,VALID,918.052,VALID,0,VALID,57.9685,VALID,826.76,VALID,26.1753,VALID,255,VALID,2.16133,
2016-12-13, 18:03:04,VALID,917.981,VALID,0,VALID,57.7626,VALID,236.048,VALID,25.8433,VALID,31,VALID,2.64922,
2016-12-13, 18:04:04,VALID,917.973,VALID,0,VALID,61.4371,VALID,632.399,VALID,25.648,VALID,29,VALID,1.04023,
2016-12-13, 18:05:04,VALID,918,VALID,0,VALID,63.7241,VALID,823.751,VALID,25.8237,VALID,326,VALID,0,
2016-12-13, 18:06:04,VALID,917.945,VALID,0,VALID,63.3811,VALID,826.222,VALID,26.1362,VALID,311,VALID,0,
2016-12-13, 18:07:04,VALID,917.956,VALID,0,VALID,64.2959,VALID,616.175,VALID,26.4292,VALID,209,VALID,0.000390625,
2016-12-13, 18:08:04,VALID,917.95,VALID,0,VALID,57.6483,VALID,434.062,VALID,26.6441,VALID,18,VALID,1.40781,
2016-12-13, 18:09:04,VALID,917.923,VALID,0,VALID,60.9416,VALID,611.662,VALID,26.4683,VALID,7,VALID,1.22031,
2016-12-13, 18:10:04,VALID,917.917,VALID,0,VALID,57.4958,VALID,690.954,VALID,26.273,VALID,19,VALID,0.879297,
2016-12-13, 18:11:04,VALID,917.916,VALID,0,VALID,58.3191,VALID,641.101,VALID,26.1558,VALID,270,VALID,0.476953,
2016-12-13, 18:12:04,VALID,917.859,VALID,0,VALID,59.6913,VALID,687.194,VALID,25.9604,VALID,349,VALID,0.0203125,
2016-12-13, 18:13:04,VALID,917.884,VALID,0,VALID,61.3228,VALID,574.488,VALID,25.9975,VALID,133,VALID,0.313281,
2016-12-13, 18:14:04,VALID,917.888,VALID,0,VALID,58.9214,VALID,610.373,VALID,26.0952,VALID,245,VALID,0.833594,
2016-12-13, 18:15:04,VALID,917.808,VALID,0,VALID,60.6748,VALID,706.533,VALID,26.0972,VALID,277,VALID,0,
2016-12-13, 18:16:04,VALID,917.787,VALID,0,VALID,63.8614,VALID,772.394,VALID,26.2514,VALID,349,VALID,0.00976563,
2016-12-13, 18:17:04,VALID,917.855,VALID,0,VALID,59.8286,VALID,879.836,VALID,26.312,VALID,253,VALID,0.703906,
2016-12-13, 18:18:04,VALID,917.818,VALID,0,VALID,61.0559,VALID,894.233,VALID,25.9194,VALID,286,VALID,0.716797,
2016-12-13, 18:19:04,VALID,917.807,VALID,0,VALID,62.1918,VALID,927.539,VALID,25.8804,VALID,224,VALID,0.173438,
2016-12-13, 18:20:04,VALID,917.833,VALID,0,VALID,63.9147,VALID,723.294,VALID,25.8218,VALID,267,VALID,0.455078,
2016-12-13, 18:21:04,VALID,917.794,VALID,0,VALID,60.4766,VALID,657.97,VALID,25.8218,VALID,225,VALID,0.183594,
2016-12-13, 18:22:04,VALID,917.785,VALID,0,VALID,62.1995,VALID,515.932,VALID,25.8804,VALID,209,VALID,0.00585938,
2016-12-13, 18:23:04,VALID,917.731,VALID,0,VALID,62.169,VALID,554.181,VALID,26.0581,VALID,237,VALID,0,
2016-12-13, 18:24:04,VALID,917.705,VALID,0,VALID,62.9313,VALID,637.986,VALID,26.2144,VALID,3,VALID,0.789844,
2016-12-13, 18:25:04,VALID,917.723,VALID,0,VALID,62.0775,VALID,528.61,VALID,26.4292,VALID,16,VALID,0,
2016-12-13, 18:26:04,VALID,917.71,VALID,0,VALID,58.9519,VALID,567.074,VALID,26.605,VALID,286,VALID,0.00429688,
2016-12-13, 18:27:04,VALID,917.711,VALID,0,VALID,60.2326,VALID,493.262,VALID,26.7243,VALID,315,VALID,0,
2016-12-13, 18:28:04,VALID,917.722,VALID,0,VALID,60.9873,VALID,315.447,VALID,26.8199,VALID,5,VALID,0,
2016-12-13, 18:29:04,VALID,917.711,VALID,0,VALID,60.6443,VALID,307.711,VALID,26.7223,VALID,39,VALID,0.0601562,
2016-12-13, 18:30:04,VALID,917.669,VALID,0,VALID,63.0914,VALID,338.332,VALID,26.6636,VALID,18,VALID,0.000390625,
2016-12-13, 18:31:04,VALID,917.702,VALID,0,VALID,62.8474,VALID,300.405,VALID,26.605,VALID,314,VALID,0.344531,
2016-12-13, 18:32:04,VALID,917.664,VALID,0,VALID,60.103,VALID,260.652,VALID,25.9995,VALID,247,VALID,0.166406,
2016-12-13, 18:33:04,VALID,917.642,VALID,0,VALID,63.3125,VALID,290.521,VALID,25.7261,VALID,80,VALID,1.24063,
2016-12-13, 18:34:04,VALID,917.581,VALID,0,VALID,61.5057,VALID,305.563,VALID,25.5503,VALID,360,VALID,1.41445,
2016-12-13, 18:35:04,VALID,917.622,VALID,0,VALID,64.1739,VALID,302.339,VALID,25.316,VALID,351,VALID,0.343359,
2016-12-13, 18:36:04,VALID,917.639,VALID,0,VALID,62.9389,VALID,382.276,VALID,25.1598,VALID,311,VALID,0.461719,
2016-12-13, 18:37:04,VALID,917.641,VALID,0,VALID,65.8816,VALID,395.598,VALID,25.0426,VALID,305,VALID,0,
2016-12-13, 18:38:04,VALID,917.631,VALID,0,VALID,65.4775,VALID,322.968,VALID,25.1402,VALID,344,VALID,0,
2016-12-13, 18:39:04,VALID,917.631,VALID,0,VALID,66.0874,VALID,470.377,VALID,25.2965,VALID,347,VALID,0,